Bartow, FL

6:20 AM EST on January 24, 2017 (GMT -0500)
Bartow Municipal

Weather History for KBOW - October, 2011

Change the Weather History Date:

Tuesday, October 25, 2011

  Actual Average Record
Temperature  
Mean Temperature 66 °F -  
Max Temperature 80 °F 83 °F 90 °F (1950)
Min Temperature 51 °F 63 °F 41 °F (1937)
Growing Degree Days 16 (Base 50)    
Moisture  
Dew Point 56 °F    
Average Humidity 77    
Maximum Humidity 100    
Minimum Humidity 42    
Precipitation  
Precipitation 0.00 in - - ()
Sea Level Pressure  
Sea Level Pressure 30.13 in    
Wind  
Wind Speed 2 mph (ENE)    
Max Wind Speed 15 mph    
Max Gust Speed 18 mph    
Visibility 10 miles    
Events      
Averages and records for this station are not official NWS values.
T = Trace of Precipitation, MM = Missing Value Source: NWS Daily Summary

Daily Weather History Graph

Daily Weather History Graph

Search for Another Location

Airport or City:

Trip Planner

Search our weather history database for the weather conditions in past years. The results will help you decide how hot, cold, wet, or windy it might be!

Date:

Astronomy

Oct. 25, 2011 Rise Set
Actual Time 7:33 AM EDT 6:48 PM EDT
Civil Twilight 7:09 AM EDT 7:12 PM EDT
Nautical Twilight 6:41 AM EDT 7:40 PM EDT
Astronomical Twilight 6:14 AM EDT 8:07 PM EDT
Moon 6:07 AM EDT (10/25) 5:49 PM EDT (10/25)
Length of Visible Light 12h 03m
Length of Day
11h 15m
Waning Crescent, 2% of the Moon is Illuminated
Oct 25
Waning Crescent
Oct 26
New
Nov 2
First Quarter
Nov 10
Full
Nov 18
Last Quarter

Hourly Weather History & Observations

Time (EDT) Temp. Heat Index Dew Point Humidity Pressure Visibility Wind Dir Wind Speed Gust Speed Precip Events Conditions
12:15 AM 53.6 °F - 50.0 °F 88% 30.16 in 10.0 mi Calm Calm - N/A   Clear
12:35 AM 53.6 °F - 51.8 °F 94% 30.15 in 10.0 mi Calm Calm - N/A   Clear
12:55 AM 53.6 °F - 51.8 °F 94% 30.15 in 10.0 mi Calm Calm - N/A   Clear
1:15 AM 53.6 °F - 53.6 °F 100% 30.15 in 10.0 mi Calm Calm - N/A   Clear
1:35 AM 53.6 °F - 51.8 °F 94% 30.15 in 10.0 mi Calm Calm - N/A   Clear
1:55 AM 51.8 °F - 51.8 °F 100% 30.15 in 10.0 mi Calm Calm - N/A   Clear
2:15 AM 51.8 °F - 51.8 °F 100% 30.14 in 10.0 mi Calm Calm - N/A   Clear
2:55 AM 51.8 °F - 51.8 °F 100% 30.13 in 10.0 mi Calm Calm - N/A   Clear
3:15 AM 51.8 °F - 51.8 °F 100% 30.13 in 10.0 mi Calm Calm - N/A   Clear
3:35 AM 51.8 °F - 51.8 °F 100% 30.13 in 10.0 mi Calm Calm - N/A   Clear
3:55 AM 51.8 °F - 51.8 °F 100% 30.12 in 10.0 mi Calm Calm - N/A   Clear
4:15 AM 53.6 °F - 53.6 °F 100% 30.11 in 10.0 mi Calm Calm - N/A   Clear
4:35 AM 53.6 °F - 53.6 °F 100% 30.11 in 10.0 mi Calm Calm - N/A   Clear
4:55 AM 53.6 °F - 53.6 °F 100% 30.12 in 9.0 mi Calm Calm - N/A   Clear
5:15 AM 55.4 °F - 55.4 °F 100% 30.12 in 9.0 mi Calm Calm - N/A   Clear
5:35 AM 55.4 °F - 55.4 °F 100% 30.12 in 9.0 mi North 3.5 mph - N/A   Clear
5:55 AM 55.4 °F - 55.4 °F 100% 30.12 in 10.0 mi Calm Calm - N/A   Clear
6:15 AM 55.4 °F - 55.4 °F 100% 30.12 in 10.0 mi Calm Calm - N/A   Clear
6:35 AM 53.6 °F - 53.6 °F 100% 30.13 in 10.0 mi Calm Calm - N/A   Clear
6:55 AM 55.4 °F - 55.4 °F 100% 30.14 in 9.0 mi Calm Calm - N/A   Clear
7:15 AM 55.4 °F - 55.4 °F 100% 30.14 in 8.0 mi Calm Calm - N/A   Clear
7:30 AM 55.4 °F - 55.4 °F 100% 30.15 in 8.0 mi Calm Calm - N/A   Partly Cloudy
7:55 AM 55.4 °F - 55.4 °F 100% 30.16 in 10.0 mi Variable 3.5 mph - N/A   Partly Cloudy
8:53 AM 62.6 °F - 59.0 °F 88% 30.17 in 12.0 mi North 5.8 mph - N/A   Partly Cloudy
9:51 AM 69.8 °F - 57.2 °F 64% 30.18 in 12.0 mi NNE 5.8 mph - N/A   Partly Cloudy
10:50 AM 73.4 °F - 57.2 °F 57% 30.18 in 15.0 mi NNE 9.2 mph - N/A   Partly Cloudy
11:50 AM 77.0 °F - 57.2 °F 50% 30.18 in 15.0 mi NE 9.2 mph - N/A   Partly Cloudy
12:51 PM 78.8 °F - 57.2 °F 47% 30.16 in 15.0 mi ENE 13.8 mph - N/A   Scattered Clouds
1:51 PM 80.6 °F 80.8 °F 57.2 °F 45% 30.13 in 15.0 mi ENE 11.5 mph - N/A   Scattered Clouds
3:15 PM 78.8 °F - 57.2 °F 47% 30.10 in 5.0 mi East 10.4 mph - N/A   Haze
3:35 PM 78.8 °F - 55.4 °F 44% 30.10 in 4.0 mi NE 8.1 mph - N/A   Haze
3:55 PM 80.6 °F 80.5 °F 55.4 °F 42% 30.10 in 2.0 mi ENE 11.5 mph - N/A   Haze
4:15 PM 80.6 °F 80.5 °F 55.4 °F 42% 30.10 in 8.0 mi ENE 10.4 mph - N/A   Mostly Cloudy
4:35 PM 80.6 °F 80.5 °F 55.4 °F 42% 30.10 in 7.0 mi ENE 10.4 mph 18.4 mph N/A   Scattered Clouds
4:55 PM 80.6 °F 80.8 °F 57.2 °F 45% 30.10 in 8.0 mi ENE 15.0 mph - N/A   Scattered Clouds
5:15 PM 78.8 °F - 55.4 °F 44% 30.10 in 9.0 mi East 5.8 mph - N/A   Partly Cloudy
5:35 PM 77.0 °F - 57.2 °F 50% 30.09 in 7.0 mi East 6.9 mph - N/A   Clear
5:55 PM 78.8 °F - 55.4 °F 44% 30.10 in 3.0 mi East 8.1 mph - N/A   Haze
6:15 PM 77.0 °F - 55.4 °F 47% 30.10 in 9.0 mi East 13.8 mph 17.3 mph N/A   Partly Cloudy
6:35 PM 75.2 °F - 57.2 °F 53% 30.10 in 9.0 mi ENE 10.4 mph - N/A   Partly Cloudy
6:55 PM 73.4 °F - 57.2 °F 57% 30.11 in 6.0 mi ENE 8.1 mph - N/A   Haze
7:15 PM 71.6 °F - 57.2 °F 60% 30.10 in 10.0 mi ENE 8.1 mph - N/A   Clear
7:35 PM 71.6 °F - 57.2 °F 60% 30.11 in 10.0 mi Calm Calm - N/A   Partly Cloudy
7:55 PM 69.8 °F - 57.2 °F 64% 30.12 in 10.0 mi Calm Calm - N/A   Clear
8:15 PM 69.8 °F - 59.0 °F 68% 30.12 in 10.0 mi Calm Calm - N/A   Scattered Clouds
8:35 PM 68.0 °F - 59.0 °F 73% 30.12 in 10.0 mi ENE 3.5 mph - N/A   Mostly Cloudy
8:55 PM 66.2 °F - 59.0 °F 78% 30.13 in 10.0 mi Calm Calm - N/A   Scattered Clouds
9:15 PM 68.0 °F - 59.0 °F 73% 30.13 in 10.0 mi Calm Calm - N/A   Mostly Cloudy
9:35 PM 68.0 °F - 59.0 °F 73% 30.13 in 10.0 mi Calm Calm - N/A   Partly Cloudy
9:55 PM 66.2 °F - 59.0 °F 78% 30.13 in 10.0 mi Calm Calm - N/A   Scattered Clouds
10:15 PM 66.2 °F - 60.8 °F 83% 30.13 in 10.0 mi Calm Calm - N/A   Mostly Cloudy
10:35 PM 66.2 °F - 60.8 °F 83% 30.13 in 10.0 mi Calm Calm - N/A   Mostly Cloudy
10:55 PM 66.2 °F - 60.8 °F 83% 30.13 in 10.0 mi Calm Calm - N/A   Mostly Cloudy
11:15 PM 66.2 °F - 60.8 °F 83% 30.13 in 10.0 mi Calm Calm - N/A   Scattered Clouds
11:35 PM 66.2 °F - 59.0 °F 78% 30.13 in 10.0 mi Calm Calm - N/A   Scattered Clouds
11:55 PM 66.2 °F - 59.0 °F 78% 30.12 in 10.0 mi Calm Calm - N/A   Partly Cloudy